This demonstration page uses our WeatherBlox Daily Observations layout. Learn more.

Left ArrowRight Arrow

40.92501, -98.34201

Hourly Observations for June 13, 2020

Temp ( °F °C ) Dew Point ( °F °C ) Humidity (%) Winds ( mph kmh ) Pressure ( in mb ) Visibility ( mi km ) Precip ( " mm )
12:53 am 00:53 Clear 69 20.6 56 13.3 63 63 SE 5 7 30.13 1020 10 16 0.00 0.00
1:53 am 01:53 Clear 69 20.6 57 13.9 66 66 SE 6 9 30.12 1020 10 16 0.00 0.00
2:53 am 02:53 Clear 67 19.4 57 13.9 71 71 SE 5 7 30.12 1020 10 16 0.00 0.00
3:53 am 03:53 Clear 67 19.4 57 13.9 71 71 ESE 6 9 30.11 1020 10 16 0.00 0.00
4:53 am 04:53 Clear 64 17.8 57 13.9 78 78 ESE 5 7 30.10 1019 10 16 0.00 0.00
5:53 am 05:53 Clear 65 18.3 57 13.9 76 76 ESE 9 15 30.09 1019 10 16 0.00 0.00
6:53 am 06:53 Sunny 67 19.4 58 14.4 73 73 ESE 10 17 30.09 1019 10 16 0.00 0.00
7:53 am 07:53 Sunny 71 21.7 60 15.6 68 68 SE 10 17 30.08 1019 10 16 0.00 0.00
8:53 am 08:53 Sunny 75 23.9 60 15.6 60 60 SE 12 19 30.07 1018 10 16 0.00 0.00
9:53 am 09:53 Sunny 80 26.7 60 15.6 51 51 SE 10 17 30.06 1018 10 16 0.00 0.00
10:53 am 10:53 Sunny 85 29.4 59 15 42 42 ESE 15 24 30.03 1017 10 16 0.00 0.00
11:53 am 11:53 Sunny 88 31.1 55 12.8 33 33 SE 17 28 30.01 1016 10 16 0.00 0.00
12:53 pm 12:53 Sunny 91 32.8 56 13.3 31 31 ESE 16 26 29.99 1016 10 16 0.00 0.00
1:53 pm 13:53 Sunny 92 33.3 53 11.7 27 27 SE 22 35 29.96 1015 10 16 0.00 0.00
2:53 pm 14:53 Sunny 93 33.9 55 12.8 28 28 SE 21 33 29.95 1014 10 16 0.00 0.00
3:53 pm 15:53 Sunny 92 33.3 58 14.4 32 32 SSE 22 35 29.94 1014 10 16 0.00 0.00
4:53 pm 16:53 Sunny 93 33.9 57 13.9 30 30 SSE 22 35 29.92 1013 10 16 0.00 0.00
5:53 pm 17:53 Sunny 93 33.9 54 12.2 27 27 SSE 17 28 29.91 1013 10 16 0.00 0.00
6:53 pm 18:53 Sunny 91 32.8 54 12.2 28 28 SE 17 28 29.88 1012 10 16 0.00 0.00
7:53 pm 19:53 Sunny 90 32.2 55 12.8 31 31 SE 16 26 29.88 1012 10 16 0.00 0.00
8:53 pm 20:53 Sunny 85 29.4 55 12.8 36 36 SE 16 26 29.89 1012 10 16 0.00 0.00
9:53 pm 21:53 Clear 82 27.8 56 13.3 41 41 SE 17 28 29.90 1012 10 16 0.00 0.00
10:53 pm 22:53 Clear 80 26.7 56 13.3 44 44 SE 18 30 29.91 1013 10 16 0.00 0.00
11:53 pm 23:53 Clear 78 25.6 56 13.3 47 47 SE 18 30 29.91 1013 10 16 0.00 0.00

Powered by AerisWeather